Date String (YYYY-MM-DD hh:mm:ss) UTC,Instrument flags,Ambient pressure (hPa),Sample flow (lpm),Bypass flow (lpm),Sample temperature (°C),Ambient temperature (°C),ASC tube jacket temperature (°C),LED temperature (°C),Box temperature (°C),Sample RH (%),Span deviation,Mass concentration (μg/m³),Mass concentration (μg/m³),Mass concentration (μg/m³)
DateTimeUTC,F1_M11,P_M11,Q1_M11,Q2_M11,T1_M11,T2_M11,T3_M11,T4_M11,T5_M11,U1_M11,ZSPAN_M11,X0_M11,X2_M11,X1_M11
2022-09-03 10:00:00,,0834.7,5.01,0.00,30.2,29.1,00.0,39.0,32.1,19.4,0000.0,0012.07,0005.38,0004.55
2022-09-03 10:01:00,,0834.7,5.01,0.00,30.3,29.1,00.0,39.0,32.1,19.3,0000.0,0011.78,0005.33,0004.52
2022-09-03 10:02:00,,0834.7,4.99,0.00,30.3,29.2,00.0,39.0,32.1,19.3,0000.0,0011.33,0005.22,0004.48
2022-09-03 10:03:00,,0834.7,5.02,0.00,30.3,29.2,00.0,39.0,32.1,19.3,0000.0,0011.84,0005.12,0004.41
2022-09-03 10:04:00,,0834.7,5.00,0.00,30.3,29.2,00.0,39.1,32.1,19.4,0000.0,0011.89,0005.06,0004.37
2022-09-03 10:05:00,,0834.7,4.99,0.00,30.3,29.3,00.0,39.1,32.2,19.4,0000.0,0010.90,0005.00,0004.33
2022-09-03 10:06:00,,0834.7,5.01,0.00,30.4,29.3,00.0,39.1,32.2,19.4,0000.0,0010.84,0005.05,0004.36
2022-09-03 10:07:00,,0834.7,4.98,0.00,30.4,29.3,00.0,39.1,32.2,19.5,0000.0,0010.93,0005.13,0004.42
2022-09-03 10:08:00,,0834.7,5.01,0.00,30.4,29.1,00.0,39.1,32.2,19.4,0000.0,0011.36,0005.21,0004.47
2022-09-03 10:09:00,,0834.7,5.00,0.00,30.4,27.6,00.0,39.1,32.1,19.4,0000.0,0010.54,0005.24,0004.50
2022-09-03 10:10:00,,0834.7,4.99,0.00,30.3,26.9,00.0,39.0,32.0,19.5,0000.0,0011.01,0005.32,0004.54
2022-09-03 10:11:00,,0834.7,5.00,0.00,30.2,27.0,00.0,39.0,31.9,19.6,0000.0,0011.71,0005.40,0004.58
2022-09-03 10:12:00,,0834.7,5.01,0.00,30.1,27.3,00.0,38.9,31.7,19.7,0000.0,0011.81,0005.49,0004.65
2022-09-03 10:13:00,,0834.8,5.01,0.00,30.1,27.6,00.0,38.9,31.7,19.7,0000.0,0012.09,0005.57,0004.71
2022-09-03 10:14:00,,0834.8,5.00,0.00,30.1,27.9,00.0,38.9,31.7,19.8,0000.0,0011.61,0005.67,0004.78
2022-09-03 10:15:00,,0834.8,4.99,0.00,30.0,28.1,00.0,38.9,31.7,19.7,0000.0,0011.58,0005.70,0004.83
2022-09-03 10:16:00,,0834.8,5.01,0.00,30.0,28.3,00.0,38.9,31.7,19.7,0000.0,0011.60,0005.73,0004.88
2022-09-03 10:17:00,,0834.8,5.00,0.00,30.0,28.4,00.0,38.9,31.8,19.7,0000.0,0011.62,0005.65,0004.85
2022-09-03 10:18:00,,0834.8,4.98,0.00,30.0,28.6,00.0,38.9,31.8,19.7,0000.0,0011.63,0005.58,0004.82
2022-09-03 10:19:00,,0834.9,5.01,0.00,30.1,28.7,00.0,38.9,31.9,19.9,0000.0,0010.98,0005.60,0004.84
2022-09-03 10:20:00,,0834.8,5.01,0.00,30.1,28.7,00.0,38.9,31.9,19.8,0000.0,0010.89,0005.66,0004.88
2022-09-03 10:21:00,,0834.8,5.01,0.00,30.1,28.8,00.0,38.9,31.9,19.9,0000.0,0010.88,0005.66,0004.93
2022-09-03 10:22:00,,0834.9,4.99,0.00,30.1,28.9,00.0,38.9,32.0,19.9,0000.0,0011.77,0005.76,0005.02
2022-09-03 10:23:00,,0834.8,5.01,0.00,30.1,28.9,00.0,38.9,32.0,19.8,0000.0,0012.05,0005.76,0005.01
2022-09-03 10:24:00,,0834.8,5.00,0.00,30.1,29.0,00.0,38.9,32.0,19.7,0000.0,0012.32,0005.79,0005.02
2022-09-03 10:25:00,,0834.8,4.99,0.00,30.2,29.0,00.0,38.9,32.0,19.7,0000.0,0012.76,0005.85,0005.04
2022-09-03 10:26:00,,0834.8,5.00,0.00,30.2,29.1,00.0,38.9,32.0,19.8,0000.0,0013.15,0005.94,0005.09
2022-09-03 10:27:00,,0834.7,5.01,0.00,30.2,29.1,00.0,39.0,32.1,19.8,0000.0,0013.26,0006.01,0005.15
2022-09-03 10:28:00,,0834.7,4.98,0.00,30.2,29.1,00.0,39.0,32.1,19.8,0000.0,0013.23,0006.12,0005.26
2022-09-03 10:29:00,,0834.7,5.01,0.00,30.3,29.2,00.0,39.0,32.1,19.7,0000.0,0013.33,0006.22,0005.31
2022-09-03 10:30:00,,0834.7,5.00,0.00,30.3,29.2,00.0,39.0,32.1,19.6,0000.0,0013.32,0006.21,0005.30
2022-09-03 10:31:00,,0834.7,5.00,0.00,30.3,29.2,00.0,39.0,32.1,19.6,0000.0,0014.07,0006.17,0005.27
2022-09-03 10:32:00,,0834.7,5.01,0.00,30.3,29.3,00.0,39.0,32.2,19.6,0000.0,0014.44,0006.17,0005.26
2022-09-03 10:33:00,,0834.7,4.99,0.00,30.4,29.3,00.0,39.1,32.2,19.6,0000.0,0013.12,0006.12,0005.20
2022-09-03 10:34:00,,0834.7,5.00,0.00,30.4,29.3,00.0,39.1,32.2,19.6,0000.0,0013.37,0006.15,0005.22
2022-09-03 10:35:00,,0834.7,5.00,0.00,30.4,29.3,00.0,39.1,32.2,19.5,0000.0,0013.17,0006.20,0005.26
2022-09-03 10:36:00,,0834.7,4.99,0.00,30.4,29.3,00.0,39.1,32.3,19.6,0000.0,0012.67,0006.19,0005.30
2022-09-03 10:37:00,,0834.7,4.99,0.00,30.4,28.2,00.0,39.1,32.1,19.8,0000.0,0014.53,0006.24,0005.36
2022-09-03 10:38:00,,0834.7,5.00,0.00,30.3,27.2,00.0,39.1,32.1,19.9,0000.0,0015.23,0006.38,0005.43
2022-09-03 10:39:00,,0834.7,5.02,0.00,30.3,27.1,00.0,39.0,31.9,20.1,0000.0,0015.63,0006.49,0005.49
2022-09-03 10:40:00,,0834.7,5.00,0.00,30.2,27.3,00.0,39.0,31.8,20.1,0000.0,0016.46,0006.61,0005.59
2022-09-03 10:41:00,,0834.7,4.99,0.00,30.1,27.7,00.0,39.0,31.8,20.0,0000.0,0017.09,0006.73,0005.68
2022-09-03 10:42:00,,0834.7,5.01,0.00,30.1,27.9,00.0,38.9,31.8,20.0,0000.0,0017.41,0006.82,0005.76
2022-09-03 10:43:00,,0834.7,5.00,0.00,30.1,28.2,00.0,38.9,31.8,20.1,0000.0,0016.86,0006.87,0005.81
2022-09-03 10:44:00,,0834.7,5.00,0.00,30.1,28.3,00.0,38.9,31.8,20.0,0000.0,0017.23,0006.90,0005.84
2022-09-03 10:45:00,,0834.7,5.00,0.00,30.1,28.5,00.0,38.9,31.8,20.1,0000.0,0016.97,0006.94,0005.88
2022-09-03 10:46:00,,0834.7,5.00,0.00,30.1,28.6,00.0,38.9,31.9,20.1,0000.0,0017.19,0007.00,0005.90
2022-09-03 10:47:00,,0834.7,5.01,0.00,30.1,28.7,00.0,38.9,31.9,20.0,0000.0,0018.22,0007.06,0005.92
2022-09-03 10:48:00,,0834.7,4.98,0.00,30.1,28.8,00.0,38.9,31.9,20.2,0000.0,0016.78,0007.03,0005.90
2022-09-03 10:49:00,,0834.7,5.00,0.00,30.1,28.9,00.0,38.9,31.9,20.3,0000.0,0016.12,0006.91,0005.84
2022-09-03 10:50:00,,0834.7,5.01,0.00,30.1,28.9,00.0,38.9,32.0,20.2,0000.0,0015.73,0006.82,0005.77
2022-09-03 10:51:00,,0834.7,4.98,0.00,30.2,29.0,00.0,38.9,32.0,20.3,0000.0,0015.04,0006.65,0005.66
2022-09-03 10:52:00,,0834.8,5.01,0.00,30.2,29.0,00.0,38.9,32.0,20.2,0000.0,0014.72,0006.50,0005.57
2022-09-03 10:53:00,,0834.7,5.01,0.00,30.2,29.0,00.0,39.0,32.0,20.2,0000.0,0014.13,0006.42,0005.49
2022-09-03 10:54:00,,0834.8,5.00,0.00,30.2,29.1,00.0,39.0,32.0,20.2,0000.0,0013.87,0006.39,0005.43
2022-09-03 10:55:00,,0834.8,4.99,0.00,30.2,29.1,00.0,39.0,32.0,20.3,0000.0,0013.91,0006.39,0005.40
2022-09-03 10:56:00,,0834.8,5.00,0.00,30.2,29.1,00.0,39.0,32.1,20.0,0000.0,0013.72,0006.32,0005.34
2022-09-03 10:57:00,,0834.8,4.99,0.00,30.3,29.2,00.0,39.0,32.1,19.9,0000.0,0013.82,0006.19,0005.26
2022-09-03 10:58:00,,0834.8,5.01,0.00,30.3,29.2,00.0,39.0,32.1,19.9,0000.0,0013.42,0006.12,0005.19
2022-09-03 10:59:00,,0834.7,4.99,0.00,30.3,29.2,00.0,39.0,32.1,19.8,0000.0,0012.56,0006.02,0005.12
